This is the latest recevied weather packets stored in our database for station/object DG1UDO-13. If no packets are shown the sender has not sent any weather packets the latest 1 day(s).
| Time | Temp. | Humidity | Pressure | Rain* | Wind** | Luminosity | Snow |
|---|---|---|---|---|---|---|---|
| 1778022300 | 10° C | 80% | 1010.4 hPa | - | 1.34 m/s, 66° | - | - |
| 1778020500 | 10.56° C | 79% | 1010.7 hPa | - | 0.89 m/s, 61° | - | - |
| 1778018701 | 10.56° C | 77% | 1010.6 hPa | - | 1.79 m/s, 82° | - | - |
| 1778016902 | 11.11° C | 76% | 1010.7 hPa | - | 1.34 m/s, 83° | - | - |
| 1778015101 | 11.67° C | 72% | 1010.9 hPa | - | 1.34 m/s, 76° | - | - |
| 1778013301 | 12.22° C | 69% | 1010.7 hPa | - | 2.24 m/s, 70° | - | - |
| 1778011501 | 12.22° C | 71% | 1010.4 hPa | - | 2.24 m/s, 39° | - | - |
| 1778009700 | 12.22° C | 71% | 1010.5 hPa | - | 1.79 m/s, 64° | - | - |
| 1778007900 | 12.78° C | 71% | 1010.5 hPa | - | 0.89 m/s, 73° | - | - |
| 1778006100 | 12.78° C | 71% | 1010.6 hPa | - | 1.34 m/s, 61° | - | - |
| 1778004300 | 12.78° C | 70% | 1010.5 hPa | - | 1.79 m/s, 26° | - | - |
| 1778002500 | 13.33° C | 74% | 1010.6 hPa | - | 2.24 m/s, 43° | - | - |
| 1778000700 | 13.33° C | 75% | 1010.5 hPa | - | 1.79 m/s, 112° | - | - |
| 1777998900 | 13.33° C | 74% | 1010.7 hPa | - | 0.89 m/s, 56° | - | - |
| 1777997100 | 13.33° C | 76% | 1011 hPa | - | 1.79 m/s, 87° | - | - |
| 1777995301 | 13.33° C | 77% | 1010.9 hPa | - | 2.24 m/s, 78° | - | - |
| 1777993500 | 13.89° C | 78% | 1011.2 hPa | - | 0.45 m/s, 74° | - | - |
| 1777991700 | 13.33° C | 77% | 1011.1 hPa | - | 1.34 m/s, 110° | - | - |
| 1777989900 | 13.33° C | 80% | 1011 hPa | - | 1.34 m/s, 82° | - | - |
| 1777988100 | 13.89° C | 75% | 1011.3 hPa | - | 1.34 m/s, 116° | - | - |
| 1777986300 | 13.33° C | 74% | 1011.4 hPa | - | 0.45 m/s, 36° | - | - |
| 1777984500 | 13.33° C | 76% | 1011.4 hPa | - | 1.34 m/s, 106° | - | - |
| 1777982700 | 13.33° C | 73% | 1011.7 hPa | - | 1.34 m/s, 56° | - | - |
| 1777980900 | 13.33° C | 74% | 1011.6 hPa | - | 1.34 m/s, 55° | - | - |
| 1777979101 | 12.78° C | 76% | 1012.1 hPa | - | 1.34 m/s, 29° | - | - |
* Rain since midnight (hover to see other rain measurements)
** Current wind speed in m/s (hover to see current wind gust speed)